| time (UTC) | temp F | wind direction | speed MPH | gust MPH | rain 1hr in | rain 24hr in | rain mn in | humidity % | barometer mb |
| 20260506134314 | 56 | 283 | 0.0 | 1.0 | 0.00 | 0.00 | 0.00 | 81 | 1022.0 |
| 20260506133811 | 56 | 66 | 0.0 | 0.0 | 0.00 | 0.00 | 0.00 | 82 | 1022.0 |
| 20260506133308 | 56 | 15 | 0.0 | 0.0 | 0.00 | 0.00 | 0.00 | 82 | 1021.9 |
| 20260506132804 | 56 | 37 | 0.0 | 0.0 | 0.00 | 0.00 | 0.00 | 81 | 1021.9 |
| 20260506132302 | 56 | 140 | 0.0 | 0.0 | 0.00 | 0.00 | 0.00 | 82 | 1021.9 |
| 20260506131800 | 56 | 24 | 0.0 | 0.0 | 0.00 | 0.00 | 0.00 | 81 | 1022.0 |
| 20260506131255 | 56 | 22 | 0.0 | 0.0 | 0.00 | 0.00 | 0.00 | 82 | 1021.9 |
| 20260506130752 | 56 | 45 | 0.0 | 0.0 | 0.00 | 0.00 | 0.00 | 81 | 1021.9 |
| 20260506130249 | 56 | 52 | 1.0 | 2.0 | 0.00 | 0.00 | 0.00 | 81 | 1021.9 |
| 20260506125747 | 56 | 32 | 0.0 | 0.0 | 0.00 | 0.00 | 0.00 | 81 | 1021.8 |
| 20260506125245 | 56 | 12 | 0.0 | 0.0 | 0.00 | 0.00 | 0.00 | 81 | 1021.7 |
| 20260506124743 | 56 | 1 | 0.0 | 0.0 | 0.00 | 0.00 | 0.00 | 81 | 1021.7 |
| 20260506124240 | 56 | 50 | 0.0 | 0.0 | 0.00 | 0.00 | 0.00 | 81 | 1021.7 |
| 20260506123738 | 56 | 69 | 1.0 | 2.0 | 0.00 | 0.00 | 0.00 | 80 | 1021.7 |
| 20260506123237 | 56 | 78 | 0.0 | 0.0 | 0.00 | 0.00 | 0.00 | 81 | 1021.6 |
| 20260506122733 | 56 | 57 | 0.0 | 0.0 | 0.00 | 0.00 | 0.00 | 81 | 1021.6 |
| 20260506122230 | 56 | 50 | 0.0 | 0.0 | 0.00 | 0.00 | 0.00 | 80 | 1021.7 |
| 20260506121728 | 56 | 2 | 0.0 | 3.0 | 0.00 | 0.00 | 0.00 | 80 | 1021.7 |
| 20260506121225 | 56 | 36 | 1.0 | 1.0 | 0.00 | 0.00 | 0.00 | 80 | 1021.6 |
| 20260506120722 | 56 | 350 | 2.0 | 2.0 | 0.00 | 0.00 | 0.00 | 80 | 1021.7 |
| 20260506120220 | 56 | 76 | 0.0 | 1.0 | 0.00 | 0.00 | 0.00 | 80 | 1021.5 |
| 20260506115717 | 56 | 58 | 0.0 | 0.0 | 0.00 | 0.00 | 0.00 | 80 | 1021.6 |
| 20260506115215 | 56 | 74 | 0.0 | 0.0 | 0.00 | 0.00 | 0.00 | 80 | 1021.5 |
| 20260506114713 | 56 | 53 | 0.0 | 0.0 | 0.00 | 0.00 | 0.00 | 80 | 1021.4 |
| 20260506114210 | 56 | 54 | 0.0 | 1.0 | 0.00 | 0.00 | 0.00 | 80 | 1021.6 |
| 20260506113708 | 56 | 153 | 2.0 | 2.0 | 0.00 | 0.00 | 0.00 | 80 | 1021.3 |
| 20260506113206 | 56 | 55 | 0.0 | 0.0 | 0.00 | 0.00 | 0.00 | 81 | 1021.2 |
| 20260506112702 | 56 | 65 | 0.0 | 0.0 | 0.00 | 0.00 | 0.00 | 81 | 1021.3 |
| 20260506112200 | 56 | 13 | 0.0 | 0.0 | 0.00 | 0.00 | 0.00 | 81 | 1021.3 |
| 20260506111657 | 56 | 8 | 0.0 | 0.0 | 0.00 | 0.00 | 0.00 | 81 | 1021.4 |
| 20260506111154 | 56 | 6 | 2.0 | 3.0 | 0.00 | 0.00 | 0.00 | 81 | 1021.0 |
| 20260506110651 | 56 | 358 | 0.0 | 1.0 | 0.00 | 0.00 | 0.00 | 80 | 1021.3 |
| 20260506110149 | 56 | 336 | 0.0 | 6.0 | 0.00 | 0.00 | 0.00 | 80 | 1021.1 |
| 20260506105645 | 56 | 60 | 0.0 | 0.0 | 0.00 | 0.00 | 0.00 | 80 | 1021.1 |
| 20260506105142 | 56 | 14 | 1.0 | 2.0 | 0.00 | 0.00 | 0.00 | 80 | 1021.1 |
| 20260506104641 | 56 | 204 | 2.0 | 4.0 | 0.00 | 0.00 | 0.00 | 80 | 1021.1 |
| 20260506104138 | 56 | 292 | 4.0 | 6.0 | 0.00 | 0.00 | 0.00 | 80 | 1020.9 |
| 20260506103635 | 56 | 277 | 1.0 | 2.0 | 0.00 | 0.00 | 0.00 | 80 | 1021.0 |
| 20260506103132 | 56 | 254 | 2.0 | 4.0 | 0.00 | 0.00 | 0.00 | 80 | 1021.3 |
| 20260506102630 | 56 | 328 | 1.0 | 3.0 | 0.00 | 0.00 | 0.00 | 81 | 1021.1 |
| 20260506102127 | 56 | 314 | 1.0 | 3.0 | 0.00 | 0.00 | 0.00 | 81 | 1020.9 |
| 20260506101624 | 56 | 346 | 0.0 | 0.0 | 0.00 | 0.00 | 0.00 | 81 | 1021.0 |
| 20260506101120 | 56 | 305 | 1.0 | 2.0 | 0.00 | 0.00 | 0.00 | 81 | 1021.2 |
| 20260506100619 | 56 | 341 | 1.0 | 2.0 | 0.00 | 0.00 | 0.00 | 81 | 1021.1 |
| 20260506100116 | 56 | 287 | 2.0 | 2.0 | 0.00 | 0.00 | 0.00 | 81 | 1021.1 |
| 20260506095615 | 56 | 352 | 0.0 | 7.0 | 0.00 | 0.00 | 0.00 | 81 | 1020.9 |
| 20260506095111 | 56 | 274 | 0.0 | 2.0 | 0.00 | 0.00 | 0.00 | 81 | 1021.2 |
| 20260506094609 | 56 | 3 | 0.0 | 4.0 | 0.00 | 0.00 | 0.00 | 81 | 1021.2 |
| 20260506094107 | 56 | 308 | 3.0 | 4.0 | 0.00 | 0.00 | 0.00 | 80 | 1020.9 |
| 20260506093605 | 56 | 254 | 2.0 | 3.0 | 0.00 | 0.00 | 0.00 | 81 | 1021.0 |
| 20260506093102 | 56 | 223 | 0.0 | 2.0 | 0.00 | 0.00 | 0.00 | 81 | 1020.9 |
| 20260506092600 | 56 | 354 | 0.0 | 2.0 | 0.00 | 0.00 | 0.00 | 80 | 1020.9 |
| 20260506092056 | 56 | 295 | 3.0 | 3.0 | 0.00 | 0.00 | 0.00 | 80 | 1020.9 |
| 20260506091555 | 56 | 349 | 0.0 | 3.0 | 0.00 | 0.00 | 0.00 | 80 | 1020.9 |
| 20260506091052 | 56 | 0 | 0.0 | 1.0 | 0.00 | 0.00 | 0.00 | 80 | 1021.0 |
| 20260506090549 | 56 | 356 | 1.0 | 2.0 | 0.00 | 0.00 | 0.00 | 80 | 1020.9 |
| 20260506090045 | 56 | 308 | 2.0 | 3.0 | 0.00 | 0.00 | 0.00 | 80 | 1021.1 |
| 20260506085543 | 56 | 219 | 1.0 | 3.0 | 0.00 | 0.00 | 0.00 | 80 | 1021.0 |
| 20260506085039 | 56 | 324 | 0.0 | 0.0 | 0.00 | 0.00 | 0.00 | 80 | 1021.1 |
| 20260506084536 | 56 | 334 | 0.0 | 3.0 | 0.00 | 0.00 | 0.00 | 80 | 1020.8 |
| 20260506084032 | 56 | 27 | 0.0 | 0.0 | 0.00 | 0.00 | 0.00 | 80 | 1021.0 |
| 20260506083529 | 56 | 19 | 0.0 | 1.0 | 0.00 | 0.00 | 0.00 | 80 | 1020.8 |
| 20260506083027 | 56 | 56 | 3.0 | 3.0 | 0.00 | 0.00 | 0.00 | 80 | 1020.8 |
| 20260506082523 | 56 | 12 | 2.0 | 2.0 | 0.00 | 0.00 | 0.00 | 80 | 1021.0 |
| 20260506082019 | 56 | 309 | 2.0 | 4.0 | 0.00 | 0.00 | 0.00 | 80 | 1020.9 |
| 20260506081517 | 56 | 29 | 0.0 | 0.0 | 0.00 | 0.00 | 0.00 | 81 | 1020.9 |
| 20260506081015 | 56 | 280 | 3.0 | 4.0 | 0.00 | 0.00 | 0.00 | 81 | 1020.7 |
| 20260506080512 | 56 | 38 | 0.0 | 6.0 | 0.00 | 0.00 | 0.00 | 81 | 1020.8 |
| 20260506073455 | 55 | 214 | 2.0 | 3.0 | 0.00 | 0.00 | 0.00 | 83 | 1020.5 |
| 20260506072952 | 55 | 178 | 5.0 | 7.0 | 0.00 | 0.00 | 0.00 | 82 | 1020.5 |
| 20260506072449 | 55 | 197 | 4.0 | 6.0 | 0.00 | 0.00 | 0.00 | 82 | 1020.5 |
| 20260506071947 | 55 | 209 | 3.0 | 4.0 | 0.00 | 0.00 | 0.00 | 82 | 1020.6 |
| 20260506071445 | 55 | 133 | 3.0 | 7.0 | 0.00 | 0.00 | 0.00 | 82 | 1020.5 |
| 20260506070942 | 55 | 1 | 2.0 | 6.0 | 0.00 | 0.00 | 0.00 | 83 | 1020.5 |
| 20260506070439 | 55 | 92 | 0.0 | 3.0 | 0.00 | 0.00 | 0.00 | 82 | 1020.3 |
| 20260506062417 | 56 | 200 | 2.0 | 7.0 | 0.00 | 0.00 | 0.00 | 82 | 1020.3 |
| 20260506061912 | 56 | 173 | 2.0 | 3.0 | 0.00 | 0.00 | 0.00 | 81 | 1020.2 |
| 20260506061409 | 56 | 218 | 0.0 | 8.0 | 0.00 | 0.00 | 0.00 | 81 | 1020.0 |
| 20260506060907 | 56 | 322 | 4.0 | 6.0 | 0.00 | 0.00 | 0.00 | 81 | 1020.1 |
| 20260506060405 | 56 | 302 | 1.0 | 2.0 | 0.00 | 0.00 | 0.00 | 80 | 1019.9 |
| 20260506051337 | 57 | 142 | 4.0 | 8.0 | 0.00 | 0.00 | 0.00 | 79 | 1019.4 |
| 20260506050834 | 57 | 161 | 7.0 | 10.0 | 0.00 | 0.00 | 0.00 | 79 | 1019.3 |
| 20260506050331 | 57 | 167 | 4.0 | 10.0 | 0.00 | 0.00 | 0.00 | 79 | 1019.3 |
| 20260506044822 | 57 | 208 | 7.0 | 14.0 | 0.00 | 0.00 | 0.00 | 78 | 1019.3 |
| 20260506044320 | 57 | 216 | 6.0 | 13.0 | 0.00 | 0.00 | 0.00 | 79 | 1019.4 |
| 20260506043816 | 57 | 182 | 5.0 | 10.0 | 0.00 | 0.00 | 0.00 | 79 | 1019.2 |
| 20260506043314 | 57 | 223 | 3.0 | 8.0 | 0.00 | 0.00 | 0.00 | 79 | 1019.2 |
| 20260506042812 | 57 | 178 | 5.0 | 8.0 | 0.00 | 0.00 | 0.00 | 79 | 1019.1 |
| 20260506042311 | 58 | 194 | 8.0 | 10.0 | 0.00 | 0.00 | 0.00 | 79 | 1019.1 |
| 20260506041809 | 58 | 189 | 10.0 | 14.0 | 0.00 | 0.00 | 0.00 | 79 | 1018.8 |
| 20260506041306 | 58 | 189 | 4.0 | 11.0 | 0.00 | 0.00 | 0.00 | 79 | 1019.0 |
| 20260506040803 | 58 | 269 | 4.0 | 7.0 | 0.00 | 0.00 | 0.00 | 78 | 1018.9 |
| 20260506040300 | 58 | 228 | 6.0 | 8.0 | 0.00 | 0.00 | 0.00 | 78 | 1018.7 |
| 20260506035756 | 58 | 224 | 8.0 | 11.0 | 0.00 | 0.00 | 0.00 | 77 | 1018.7 |
| 20260506035254 | 58 | 187 | 2.0 | 9.0 | 0.00 | 0.00 | 0.00 | 77 | 1018.8 |
| 20260506034751 | 59 | 211 | 5.0 | 7.0 | 0.00 | 0.00 | 0.00 | 77 | 1018.7 |
| 20260506034248 | 59 | 139 | 3.0 | 8.0 | 0.00 | 0.00 | 0.00 | 76 | 1018.7 |
| 20260506033745 | 59 | 197 | 6.0 | 10.0 | 0.00 | 0.00 | 0.00 | 76 | 1018.4 |
| 20260506033242 | 59 | 167 | 4.0 | 9.0 | 0.00 | 0.00 | 0.00 | 76 | 1018.4 |
| 20260506032739 | 59 | 227 | 5.0 | 8.0 | 0.00 | 0.00 | 0.00 | 76 | 1018.4 |
| 20260506032236 | 59 | 186 | 4.0 | 10.0 | 0.00 | 0.00 | 0.00 | 75 | 1018.1 |
| 20260506031732 | 59 | 193 | 4.0 | 10.0 | 0.00 | 0.00 | 0.00 | 75 | 1018.2 |
| 20260506031230 | 59 | 134 | 4.0 | 8.0 | 0.00 | 0.00 | 0.00 | 75 | 1018.1 |
| 20260506030728 | 59 | 244 | 7.0 | 9.0 | 0.00 | 0.00 | 0.00 | 75 | 1018.1 |
| 20260506030225 | 59 | 167 | 6.0 | 10.0 | 0.00 | 0.00 | 0.00 | 75 | 1018.2 |
| 20260506025722 | 59 | 190 | 4.0 | 8.0 | 0.00 | 0.00 | 0.00 | 75 | 1018.2 |
| 20260506025218 | 59 | 201 | 2.0 | 8.0 | 0.00 | 0.00 | 0.00 | 75 | 1017.9 |
| 20260506024715 | 60 | 284 | 4.0 | 8.0 | 0.00 | 0.00 | 0.00 | 75 | 1017.9 |
| 20260506024212 | 60 | 130 | 4.0 | 10.0 | 0.00 | 0.00 | 0.00 | 75 | 1018.0 |
| 20260506023708 | 60 | 245 | 5.0 | 9.0 | 0.00 | 0.00 | 0.00 | 75 | 1017.7 |
| 20260506023205 | 60 | 217 | 5.0 | 9.0 | 0.00 | 0.00 | 0.00 | 75 | 1017.9 |
| 20260506022702 | 60 | 178 | 3.0 | 10.0 | 0.00 | 0.00 | 0.00 | 75 | 1017.6 |
| 20260506022200 | 60 | 229 | 3.0 | 7.0 | 0.00 | 0.00 | 0.00 | 75 | 1017.5 |
| 20260506021658 | 61 | 204 | 5.0 | 9.0 | 0.00 | 0.00 | 0.00 | 75 | 1017.5 |
| 20260506021154 | 61 | 127 | 0.0 | 3.0 | 0.00 | 0.00 | 0.00 | 75 | 1017.8 |
| 20260506020651 | 61 | 275 | 3.0 | 8.0 | 0.00 | 0.00 | 0.00 | 75 | 1017.5 |
| 20260506020149 | 61 | 218 | 4.0 | 8.0 | 0.00 | 0.00 | 0.00 | 74 | 1017.5 |
| 20260506015646 | 61 | 111 | 3.0 | 7.0 | 0.00 | 0.00 | 0.00 | 74 | 1017.6 |
| 20260506015143 | 62 | 187 | 7.0 | 9.0 | 0.00 | 0.00 | 0.00 | 74 | 1017.4 |
| 20260506014635 | 62 | 168 | 4.0 | 9.0 | 0.00 | 0.00 | 0.00 | 74 | 1017.6 |
| 20260506014131 | 62 | 190 | 3.0 | 6.0 | 0.00 | 0.00 | 0.00 | 73 | 1017.5 |
| 20260506013629 | 62 | 216 | 4.0 | 7.0 | 0.00 | 0.00 | 0.00 | 73 | 1017.4 |
| 20260506013126 | 62 | 208 | 6.0 | 9.0 | 0.00 | 0.00 | 0.00 | 73 | 1017.5 |
| 20260506012621 | 63 | 184 | 4.0 | 7.0 | 0.00 | 0.00 | 0.00 | 73 | 1017.3 |
| 20260506012118 | 63 | 150 | 4.0 | 7.0 | 0.00 | 0.00 | 0.00 | 73 | 1017.4 |
| 20260506011616 | 63 | 179 | 3.0 | 6.0 | 0.00 | 0.00 | 0.00 | 72 | 1017.2 |
| 20260506011112 | 63 | 202 | 4.0 | 9.0 | 0.00 | 0.00 | 0.00 | 72 | 1017.4 |
| 20260506010606 | 63 | 205 | 5.0 | 10.0 | 0.00 | 0.00 | 0.00 | 72 | 1017.3 |
| 20260506005559 | 64 | 197 | 3.0 | 6.0 | 0.00 | 0.00 | 0.00 | 71 | 1017.4 |
| 20260506005055 | 66 | 248 | 3.0 | 6.0 | 0.00 | 0.00 | 0.00 | 68 | 1017.1 |
| 20260506004547 | 65 | 234 | 2.0 | 6.0 | 0.00 | 0.00 | 0.00 | 68 | 1017.3 |
| 20260506004043 | 65 | 246 | 5.0 | 8.0 | 0.00 | 0.00 | 0.00 | 68 | 1017.2 |
| 20260506003540 | 65 | 148 | 4.0 | 11.0 | 0.00 | 0.00 | 0.00 | 69 | 1017.4 |
| 20260506003036 | 64 | 149 | 4.0 | 6.0 | 0.00 | 0.00 | 0.00 | 69 | 1017.2 |
| 20260506002532 | 64 | 216 | 4.0 | 7.0 | 0.00 | 0.00 | 0.00 | 69 | 1017.3 |
| 20260506002028 | 64 | 206 | 4.0 | 8.0 | 0.00 | 0.00 | 0.00 | 69 | 1017.1 |
| 20260506001525 | 64 | 144 | 2.0 | 6.0 | 0.00 | 0.00 | 0.00 | 69 | 1017.1 |
| 20260506001022 | 65 | 246 | 4.0 | 7.0 | 0.00 | 0.00 | 0.00 | 69 | 1017.1 |
| 20260506000520 | 64 | 170 | 3.0 | 7.0 | 0.00 | 0.00 | 0.00 | 69 | 1017.2 |
| 20260506000017 | 65 | 153 | 3.0 | 9.0 | 0.00 | 0.00 | 0.00 | 69 | 1017.3 |
| 20260505235515 | 64 | 203 | 2.0 | 3.0 | 0.00 | 0.00 | 0.00 | 69 | 1017.3 |
| 20260505235011 | 64 | 229 | 3.0 | 8.0 | 0.00 | 0.00 | 0.00 | 70 | 1017.3 |
| 20260505234508 | 65 | 239 | 4.0 | 6.0 | 0.00 | 0.00 | 0.00 | 69 | 1017.2 |
| 20260505234005 | 64 | 189 | 3.0 | 4.0 | 0.00 | 0.00 | 0.00 | 70 | 1017.1 |
| 20260505233503 | 64 | 103 | 6.0 | 8.0 | 0.00 | 0.00 | 0.00 | 71 | 1017.3 |
| 20260505233000 | 63 | 206 | 4.0 | 6.0 | 0.00 | 0.00 | 0.00 | 72 | 1017.2 |
| 20260505232458 | 63 | 165 | 9.0 | 11.0 | 0.00 | 0.00 | 0.00 | 72 | 1017.3 |
| 20260505231954 | 63 | 223 | 4.0 | 6.0 | 0.00 | 0.00 | 0.00 | 72 | 1017.3 |
| 20260505231452 | 64 | 281 | 2.0 | 9.0 | 0.00 | 0.00 | 0.00 | 72 | 1017.5 |
| 20260505230950 | 64 | 306 | 2.0 | 7.0 | 0.00 | 0.00 | 0.00 | 72 | 1017.4 |
| 20260505230447 | 64 | 196 | 4.0 | 8.0 | 0.00 | 0.00 | 0.00 | 72 | 1017.3 |
| 20260505225943 | 63 | 215 | 2.0 | 3.0 | 0.00 | 0.00 | 0.00 | 73 | 1017.4 |
| 20260505225441 | 63 | 256 | 3.0 | 8.0 | 0.00 | 0.00 | 0.00 | 72 | 1017.3 |
| 20260505224937 | 63 | 213 | 0.0 | 7.0 | 0.00 | 0.00 | 0.00 | 73 | 1017.4 |
| 20260505224434 | 63 | 144 | 3.0 | 8.0 | 0.00 | 0.00 | 0.00 | 72 | 1017.4 |
| 20260505223931 | 63 | 137 | 2.0 | 3.0 | 0.00 | 0.00 | 0.00 | 72 | 1017.4 |
| 20260505223427 | 64 | 198 | 2.0 | 6.0 | 0.00 | 0.00 | 0.00 | 71 | 1017.4 |
| 20260505222924 | 64 | 202 | 2.0 | 4.0 | 0.00 | 0.00 | 0.00 | 70 | 1017.4 |
| 20260505222420 | 64 | 101 | 0.0 | 6.0 | 0.00 | 0.00 | 0.00 | 71 | 1017.6 |
| 20260505221916 | 64 | 202 | 1.0 | 2.0 | 0.00 | 0.00 | 0.00 | 71 | 1017.5 |
| 20260505221414 | 64 | 207 | 4.0 | 6.0 | 0.00 | 0.00 | 0.00 | 71 | 1017.4 |
| 20260505220911 | 64 | 199 | 3.0 | 7.0 | 0.00 | 0.00 | 0.00 | 71 | 1017.5 |
| 20260505220408 | 64 | 288 | 4.0 | 6.0 | 0.00 | 0.00 | 0.00 | 70 | 1017.6 |
| 20260505215905 | 64 | 220 | 5.0 | 7.0 | 0.00 | 0.00 | 0.00 | 71 | 1017.3 |
| 20260505215403 | 64 | 172 | 2.0 | 4.0 | 0.00 | 0.00 | 0.00 | 71 | 1017.7 |
| 20260505214901 | 64 | 186 | 2.0 | 4.0 | 0.00 | 0.00 | 0.00 | 71 | 1017.7 |
| 20260505214358 | 65 | 219 | 2.0 | 3.0 | 0.00 | 0.00 | 0.00 | 70 | 1017.5 |
| 20260505213855 | 64 | 184 | 2.0 | 3.0 | 0.00 | 0.00 | 0.00 | 69 | 1017.7 |
| 20260505213353 | 63 | 255 | 1.0 | 6.0 | 0.00 | 0.00 | 0.00 | 71 | 1017.8 |
| 20260505212849 | 62 | 210 | 2.0 | 4.0 | 0.00 | 0.00 | 0.00 | 74 | 1017.8 |
| 20260505212346 | 62 | 182 | 3.0 | 4.0 | 0.00 | 0.00 | 0.00 | 74 | 1017.9 |
| 20260505211842 | 62 | 114 | 2.0 | 7.0 | 0.00 | 0.00 | 0.00 | 75 | 1017.7 |
| 20260505211340 | 62 | 1 | 2.0 | 6.0 | 0.00 | 0.00 | 0.00 | 74 | 1017.8 |
| 20260505210836 | 62 | 179 | 1.0 | 9.0 | 0.00 | 0.00 | 0.00 | 75 | 1017.7 |
| 20260505210333 | 62 | 215 | 4.0 | 7.0 | 0.00 | 0.00 | 0.00 | 73 | 1017.6 |
| 20260505205830 | 63 | 195 | 4.0 | 6.0 | 0.00 | 0.00 | 0.00 | 72 | 1017.8 |
| 20260505205328 | 63 | 267 | 1.0 | 3.0 | 0.00 | 0.00 | 0.00 | 72 | 1017.7 |
| 20260505204825 | 63 | 179 | 4.0 | 6.0 | 0.00 | 0.00 | 0.00 | 72 | 1017.9 |
| 20260505204323 | 62 | 232 | 2.0 | 6.0 | 0.00 | 0.00 | 0.00 | 73 | 1018.0 |
| 20260505203820 | 63 | 180 | 5.0 | 7.0 | 0.00 | 0.00 | 0.00 | 72 | 1017.9 |
| 20260505203316 | 63 | 233 | 4.0 | 4.0 | 0.00 | 0.00 | 0.00 | 72 | 1018.2 |
| 20260505202813 | 61 | 220 | 2.0 | 6.0 | 0.00 | 0.00 | 0.00 | 74 | 1017.9 |
| 20260505202308 | 62 | 203 | 4.0 | 6.0 | 0.00 | 0.00 | 0.00 | 74 | 1018.1 |
| 20260505201800 | 62 | 335 | 0.0 | 4.0 | 0.00 | 0.00 | 0.00 | 74 | 1018.1 |
| 20260505201257 | 61 | 220 | 2.0 | 3.0 | 0.00 | 0.00 | 0.00 | 75 | 1018.1 |
| 20260505200756 | 61 | 175 | 2.0 | 3.0 | 0.00 | 0.00 | 0.00 | 76 | 1017.9 |
| 20260505200252 | 61 | 13 | 1.0 | 6.0 | 0.00 | 0.00 | 0.00 | 76 | 1018.3 |
| 20260505195747 | 60 | 268 | 2.0 | 7.0 | 0.00 | 0.00 | 0.00 | 76 | 1018.1 |
| 20260505195245 | 60 | 320 | 3.0 | 7.0 | 0.00 | 0.00 | 0.00 | 76 | 1018.2 |
| 20260505194742 | 61 | 161 | 1.0 | 6.0 | 0.00 | 0.00 | 0.00 | 77 | 1018.2 |
| 20260505194239 | 61 | 244 | 2.0 | 7.0 | 0.00 | 0.00 | 0.00 | 76 | 1018.3 |
| 20260505193734 | 61 | 255 | 1.0 | 9.0 | 0.00 | 0.00 | 0.00 | 76 | 1018.1 |
| 20260505193232 | 61 | 327 | 4.0 | 6.0 | 0.00 | 0.00 | 0.00 | 75 | 1018.1 |
| 20260505192730 | 62 | 230 | 5.0 | 6.0 | 0.00 | 0.00 | 0.00 | 74 | 1018.2 |
| 20260505192228 | 62 | 328 | 3.0 | 6.0 | 0.00 | 0.00 | 0.00 | 74 | 1018.3 |
| 20260505191726 | 62 | 29 | 1.0 | 4.0 | 0.00 | 0.00 | 0.00 | 75 | 1018.0 |
| 20260505191224 | 62 | 233 | 3.0 | 8.0 | 0.00 | 0.00 | 0.00 | 74 | 1017.9 |
| 20260505190720 | 62 | 213 | 4.0 | 7.0 | 0.00 | 0.00 | 0.00 | 74 | 1017.9 |
| 20260505190220 | 62 | 355 | 3.0 | 6.0 | 0.00 | 0.00 | 0.00 | 74 | 1018.1 |
| 20260505185716 | 63 | 233 | 3.0 | 7.0 | 0.00 | 0.00 | 0.00 | 73 | 1018.2 |
| 20260505185213 | 62 | 123 | 0.0 | 4.0 | 0.00 | 0.00 | 0.00 | 73 | 1018.1 |
| 20260505184709 | 61 | 288 | 2.0 | 7.0 | 0.00 | 0.00 | 0.00 | 76 | 1018.2 |
| 20260505184207 | 61 | 293 | 2.0 | 8.0 | 0.00 | 0.00 | 0.00 | 76 | 1018.0 |
| 20260505183703 | 60 | 42 | 1.0 | 4.0 | 0.00 | 0.00 | 0.00 | 77 | 1018.2 |
| 20260505183201 | 60 | 143 | 1.0 | 6.0 | 0.00 | 0.00 | 0.00 | 79 | 1018.0 |
| 20260505182656 | 60 | 266 | 3.0 | 6.0 | 0.00 | 0.00 | 0.00 | 78 | 1018.1 |
| 20260505182154 | 60 | 230 | 2.0 | 6.0 | 0.00 | 0.00 | 0.00 | 79 | 1017.9 |
| 20260505181650 | 60 | 197 | 2.0 | 8.0 | 0.00 | 0.00 | 0.00 | 78 | 1017.9 |
| 20260505181148 | 59 | 146 | 1.0 | 6.0 | 0.00 | 0.00 | 0.00 | 79 | 1017.8 |
| 20260505180644 | 60 | 224 | 2.0 | 6.0 | 0.00 | 0.00 | 0.00 | 79 | 1017.8 |
| 20260505180142 | 60 | 204 | 3.0 | 4.0 | 0.00 | 0.00 | 0.00 | 80 | 1017.9 |
| 20260505175637 | 59 | 241 | 4.0 | 8.0 | 0.00 | 0.00 | 0.00 | 81 | 1017.8 |
| 20260505175134 | 59 | 131 | 5.0 | 6.0 | 0.00 | 0.00 | 0.00 | 81 | 1018.0 |
| 20260505174631 | 59 | 253 | 5.0 | 8.0 | 0.00 | 0.00 | 0.00 | 81 | 1017.7 |
| 20260505174127 | 59 | 177 | 4.0 | 6.0 | 0.00 | 0.00 | 0.00 | 81 | 1017.8 |
| 20260505173624 | 58 | 281 | 2.0 | 6.0 | 0.00 | 0.00 | 0.00 | 82 | 1017.7 |
| 20260505173120 | 57 | 167 | 2.0 | 8.0 | 0.00 | 0.00 | 0.00 | 84 | 1017.6 |
| 20260505172618 | 58 | 30 | 4.0 | 7.0 | 0.00 | 0.00 | 0.00 | 84 | 1017.5 |
| 20260505172115 | 58 | 50 | 1.0 | 6.0 | 0.00 | 0.00 | 0.00 | 84 | 1017.4 |
| 20260505171609 | 57 | 213 | 4.0 | 8.0 | 0.00 | 0.00 | 0.00 | 85 | 1017.7 |
| 20260505171107 | 57 | 193 | 2.0 | 3.0 | 0.00 | 0.00 | 0.00 | 86 | 1017.5 |
| 20260505170604 | 56 | 330 | 1.0 | 6.0 | 0.00 | 0.00 | 0.00 | 87 | 1017.7 |
| 20260505170100 | 56 | 242 | 3.0 | 6.0 | 0.00 | 0.00 | 0.00 | 88 | 1017.5 |
| 20260505165554 | 56 | 222 | 2.0 | 4.0 | 0.00 | 0.00 | 0.00 | 88 | 1017.8 |
| 20260505165050 | 56 | 238 | 2.0 | 6.0 | 0.00 | 0.00 | 0.00 | 88 | 1017.8 |
| 20260505164541 | 56 | 185 | 5.0 | 8.0 | 0.00 | 0.00 | 0.00 | 88 | 1017.8 |
| 20260505164039 | 56 | 193 | 3.0 | 4.0 | 0.00 | 0.00 | 0.00 | 89 | 1017.7 |
| 20260505163537 | 55 | 184 | 2.0 | 7.0 | 0.00 | 0.00 | 0.00 | 90 | 1017.8 |
| 20260505163033 | 55 | 330 | 2.0 | 2.0 | 0.00 | 0.00 | 0.00 | 90 | 1017.9 |
| 20260505162527 | 55 | 349 | 0.0 | 2.0 | 0.00 | 0.00 | 0.00 | 90 | 1017.7 |
| 20260505162024 | 55 | 17 | 1.0 | 6.0 | 0.00 | 0.00 | 0.00 | 90 | 1017.6 |
| 20260505161520 | 55 | 251 | 2.0 | 4.0 | 0.00 | 0.00 | 0.00 | 90 | 1017.7 |
| 20260505161017 | 55 | 85 | 0.0 | 1.0 | 0.00 | 0.00 | 0.00 | 91 | 1017.5 |
| 20260505160515 | 54 | 267 | 1.0 | 7.0 | 0.00 | 0.00 | 0.00 | 90 | 1017.6 |
| 20260505152952 | 55 | 226 | 1.0 | 8.0 | 0.00 | 0.00 | 0.00 | 88 | 1017.1 |
| 20260505152449 | 55 | 195 | 2.0 | 3.0 | 0.00 | 0.00 | 0.00 | 87 | 1017.2 |
| 20260505151944 | 55 | 226 | 3.0 | 7.0 | 0.00 | 0.00 | 0.00 | 87 | 1017.2 |
| 20260505151440 | 55 | 231 | 4.0 | 6.0 | 0.00 | 0.00 | 0.00 | 86 | 1017.2 |
| 20260505150937 | 55 | 159 | 2.0 | 4.0 | 0.00 | 0.00 | 0.00 | 86 | 1017.1 |
| 20260505150434 | 55 | 171 | 6.0 | 8.0 | 0.00 | 0.00 | 0.00 | 86 | 1017.1 |
| 20260505140404 | 54 | 143 | 5.0 | 9.0 | 0.00 | 0.00 | 0.00 | 85 | 1016.5 |